| time (UTC) | temp F | wind direction | speed knots | gust knots | rain 1hr in | rain 24hr in | rain mn in | humidity % | barometer mb |
| 20260507201610 | 60 | 296 | 2.6 | 5.2 | 0.00 | 0.00 | 0.00 | 55 | 1018.0 |
| 20260507201108 | 61 | 319 | 5.2 | 7.8 | 0.00 | 0.00 | 0.00 | 55 | 1017.9 |
| 20260507200603 | 60 | 302 | 8.7 | 9.6 | 0.00 | 0.00 | 0.00 | 56 | 1018.1 |
| 20260507200059 | 57 | 291 | 9.6 | 12.2 | 0.00 | 0.00 | 0.00 | 62 | 1018.0 |
| 20260507195557 | 57 | 291 | 4.3 | 7.0 | 0.00 | 0.00 | 0.00 | 62 | 1018.2 |
| 20260507195054 | 57 | 316 | 6.1 | 8.7 | 0.00 | 0.00 | 0.00 | 62 | 1018.2 |
| 20260507194550 | 58 | 267 | 9.6 | 12.2 | 0.00 | 0.00 | 0.00 | 61 | 1018.2 |
| 20260507194046 | 58 | 299 | 8.7 | 9.6 | 0.00 | 0.00 | 0.00 | 60 | 1018.2 |
| 20260507193543 | 58 | 294 | 7.8 | 9.6 | 0.00 | 0.00 | 0.00 | 60 | 1018.0 |
| 20260507193040 | 57 | 324 | 9.6 | 13.9 | 0.00 | 0.00 | 0.00 | 61 | 1018.1 |
| 20260507192536 | 57 | 299 | 8.7 | 12.2 | 0.00 | 0.00 | 0.00 | 61 | 1018.1 |
| 20260507192033 | 57 | 295 | 10.4 | 12.2 | 0.00 | 0.00 | 0.00 | 60 | 1018.2 |
| 20260507191529 | 57 | 303 | 10.4 | 13.0 | 0.00 | 0.00 | 0.00 | 60 | 1018.2 |
| 20260507191026 | 57 | 259 | 9.6 | 11.3 | 0.00 | 0.00 | 0.00 | 60 | 1018.4 |
| 20260507190523 | 58 | 309 | 7.8 | 11.3 | 0.00 | 0.00 | 0.00 | 58 | 1018.4 |
| 20260507190022 | 57 | 300 | 13.9 | 18.2 | 0.00 | 0.00 | 0.00 | 58 | 1018.4 |
| 20260507185520 | 58 | 285 | 10.4 | 14.8 | 0.00 | 0.00 | 0.00 | 59 | 1018.1 |
| 20260507185016 | 58 | 327 | 4.3 | 6.1 | 0.00 | 0.00 | 0.00 | 56 | 1018.1 |
| 20260507184515 | 58 | 258 | 15.6 | 18.2 | 0.00 | 0.00 | 0.00 | 58 | 1018.4 |
| 20260507184012 | 57 | 277 | 8.7 | 9.6 | 0.00 | 0.00 | 0.00 | 58 | 1018.1 |
| 20260507183508 | 58 | 276 | 8.7 | 13.0 | 0.00 | 0.00 | 0.00 | 58 | 1018.4 |
| 20260507183005 | 57 | 287 | 9.6 | 11.3 | 0.00 | 0.00 | 0.00 | 57 | 1018.2 |
| 20260507182501 | 58 | 296 | 7.8 | 8.7 | 0.00 | 0.00 | 0.00 | 55 | 1018.1 |
| 20260507181957 | 59 | 356 | 4.3 | 7.8 | 0.00 | 0.00 | 0.00 | 54 | 1018.0 |
| 20260507181454 | 59 | 270 | 13.0 | 14.8 | 0.00 | 0.00 | 0.00 | 53 | 1018.2 |
| 20260507180950 | 59 | 259 | 1.7 | 1.7 | 0.00 | 0.00 | 0.00 | 52 | 1018.4 |
| 20260507180447 | 60 | 290 | 12.2 | 13.9 | 0.00 | 0.00 | 0.00 | 51 | 1018.1 |
| 20260507175943 | 60 | 305 | 6.1 | 8.7 | 0.00 | 0.00 | 0.00 | 51 | 1018.2 |
| 20260507175440 | 60 | 276 | 5.2 | 7.0 | 0.00 | 0.00 | 0.00 | 53 | 1018.0 |
| 20260507174938 | 59 | 295 | 7.8 | 9.6 | 0.00 | 0.00 | 0.00 | 54 | 1017.9 |
| 20260507174434 | 58 | 338 | 4.3 | 6.1 | 0.00 | 0.00 | 0.00 | 54 | 1018.0 |
| 20260507173932 | 57 | 300 | 4.3 | 5.2 | 0.00 | 0.00 | 0.00 | 56 | 1018.1 |
| 20260507173429 | 58 | 280 | 7.0 | 7.8 | 0.00 | 0.00 | 0.00 | 54 | 1018.1 |
| 20260507172926 | 57 | 312 | 5.2 | 7.8 | 0.00 | 0.00 | 0.00 | 55 | 1018.1 |
| 20260507172422 | 57 | 295 | 4.3 | 6.1 | 0.00 | 0.00 | 0.00 | 58 | 1018.1 |
| 20260507171919 | 55 | 309 | 5.2 | 6.1 | 0.00 | 0.00 | 0.00 | 60 | 1017.9 |
| 20260507171415 | 55 | 295 | 7.8 | 8.7 | 0.00 | 0.00 | 0.00 | 62 | 1018.1 |
| 20260507170912 | 56 | 299 | 7.8 | 9.6 | 0.00 | 0.00 | 0.00 | 60 | 1018.2 |
| 20260507170409 | 57 | 296 | 7.8 | 8.7 | 0.00 | 0.00 | 0.00 | 54 | 1018.2 |
| 20260507165905 | 58 | 303 | 6.1 | 11.3 | 0.00 | 0.00 | 0.00 | 49 | 1018.0 |
| 20260507165401 | 57 | 307 | 2.6 | 4.3 | 0.00 | 0.00 | 0.00 | 50 | 1018.1 |
| 20260507164857 | 57 | 286 | 4.3 | 5.2 | 0.00 | 0.00 | 0.00 | 52 | 1017.9 |
| 20260507164354 | 57 | 291 | 3.5 | 4.3 | 0.00 | 0.00 | 0.00 | 53 | 1018.1 |
| 20260507163851 | 56 | 330 | 2.6 | 4.3 | 0.00 | 0.00 | 0.00 | 56 | 1018.0 |
| 20260507163349 | 56 | 314 | 1.7 | 1.7 | 0.00 | 0.00 | 0.00 | 56 | 1018.0 |
| 20260507162845 | 57 | 15 | 4.3 | 6.1 | 0.00 | 0.00 | 0.00 | 57 | 1018.0 |
| 20260507162340 | 58 | 19 | 2.6 | 2.6 | 0.00 | 0.00 | 0.00 | 50 | 1017.8 |
| 20260507161838 | 59 | 280 | 6.1 | 7.0 | 0.00 | 0.00 | 0.00 | 47 | 1017.9 |
| 20260507161334 | 58 | 351 | 3.5 | 4.3 | 0.00 | 0.00 | 0.00 | 48 | 1018.0 |
| 20260507160831 | 59 | 7 | 4.3 | 4.3 | 0.00 | 0.00 | 0.00 | 47 | 1017.7 |
| 20260507160326 | 58 | 346 | 7.8 | 9.6 | 0.00 | 0.00 | 0.00 | 45 | 1017.8 |
| 20260507155823 | 57 | 5 | 2.6 | 4.3 | 0.00 | 0.00 | 0.00 | 41 | 1017.9 |
| 20260507155319 | 57 | 349 | 4.3 | 5.2 | 0.00 | 0.00 | 0.00 | 41 | 1017.7 |
| 20260507154816 | 59 | 31 | 3.5 | 5.2 | 0.00 | 0.00 | 0.00 | 38 | 1017.7 |
| 20260507154313 | 59 | 11 | 0.9 | 1.7 | 0.00 | 0.00 | 0.00 | 39 | 1018.0 |
| 20260507153810 | 57 | 235 | 2.6 | 2.6 | 0.00 | 0.00 | 0.00 | 39 | 1017.9 |
| 20260507153306 | 55 | 5 | 2.6 | 2.6 | 0.00 | 0.00 | 0.00 | 40 | 1018.0 |
| 20260507152803 | 55 | 340 | 3.5 | 4.3 | 0.00 | 0.00 | 0.00 | 40 | 1017.7 |
| 20260507152259 | 53 | 182 | 0.9 | 0.9 | 0.00 | 0.00 | 0.00 | 42 | 1018.0 |
| 20260507151755 | 50 | 181 | 1.7 | 1.7 | 0.00 | 0.00 | 0.00 | 45 | 1018.0 |
| 20260507151252 | 48 | 168 | 2.6 | 2.6 | 0.00 | 0.00 | 0.00 | 48 | 1018.0 |
| 20260507150749 | 48 | 167 | 0.9 | 1.7 | 0.00 | 0.00 | 0.00 | 48 | 1018.5 |
| 20260507150246 | 47 | 233 | 1.7 | 1.7 | 0.00 | 0.00 | 0.00 | 47 | 1018.4 |
| 20260507145741 | 47 | 28 | 0.0 | 0.9 | 0.00 | 0.00 | 0.00 | 47 | 1018.4 |
| 20260507145238 | 45 | 76 | 0.0 | 0.0 | 0.00 | 0.00 | 0.00 | 47 | 1018.6 |
| 20260507144735 | 44 | 56 | 0.0 | 0.9 | 0.00 | 0.00 | 0.00 | 48 | 1018.4 |
| 20260507144233 | 44 | 51 | 0.0 | 0.0 | 0.00 | 0.00 | 0.00 | 48 | 1018.6 |
| 20260507143729 | 44 | 48 | 2.6 | 2.6 | 0.00 | 0.00 | 0.00 | 49 | 1018.5 |
| 20260507143227 | 44 | 56 | 2.6 | 2.6 | 0.00 | 0.00 | 0.00 | 50 | 1018.4 |
| 20260507142723 | 44 | 29 | 0.9 | 1.7 | 0.00 | 0.00 | 0.00 | 50 | 1018.4 |
| 20260507142219 | 44 | 153 | 0.0 | 0.0 | 0.00 | 0.00 | 0.00 | 49 | 1018.2 |
| 20260507141715 | 43 | 154 | 0.9 | 0.9 | 0.00 | 0.00 | 0.00 | 50 | 1018.0 |
| 20260507141213 | 43 | 170 | 0.0 | 0.9 | 0.00 | 0.00 | 0.00 | 50 | 1018.1 |
| 20260507140708 | 42 | 254 | 0.9 | 0.9 | 0.00 | 0.00 | 0.00 | 51 | 1018.2 |
| 20260507140206 | 42 | 254 | 0.9 | 0.9 | 0.00 | 0.00 | 0.00 | 51 | 1018.1 |
| 20260507135703 | 42 | 252 | 2.6 | 2.6 | 0.00 | 0.00 | 0.00 | 52 | 1018.0 |
| 20260507135201 | 41 | 214 | 1.7 | 1.7 | 0.00 | 0.00 | 0.00 | 50 | 1018.0 |
| 20260507134657 | 41 | 190 | 0.0 | 0.0 | 0.00 | 0.00 | 0.00 | 50 | 1017.8 |
| 20260507134153 | 40 | 165 | 0.9 | 0.9 | 0.00 | 0.00 | 0.00 | 50 | 1017.6 |
| 20260507133649 | 40 | 141 | 0.9 | 0.9 | 0.00 | 0.00 | 0.00 | 50 | 1017.7 |
| 20260507133146 | 39 | 64 | 0.0 | 0.0 | 0.00 | 0.00 | 0.00 | 51 | 1017.9 |
| 20260507132644 | 39 | 82 | 0.0 | 0.9 | 0.00 | 0.00 | 0.00 | 51 | 1017.9 |
| 20260507132139 | 38 | 154 | 0.0 | 0.9 | 0.00 | 0.00 | 0.00 | 52 | 1017.8 |
| 20260507131637 | 37 | 53 | 1.7 | 1.7 | 0.00 | 0.00 | 0.00 | 53 | 1017.9 |
| 20260507131134 | 37 | 215 | 1.7 | 1.7 | 0.00 | 0.00 | 0.00 | 54 | 1017.6 |
| 20260507130630 | 37 | 46 | 2.6 | 2.6 | 0.00 | 0.00 | 0.00 | 54 | 1017.7 |
| 20260507130129 | 36 | 71 | 0.0 | 0.9 | 0.00 | 0.00 | 0.00 | 53 | 1017.6 |
| 20260507125627 | 38 | 54 | 5.2 | 6.1 | 0.00 | 0.00 | 0.00 | 54 | 1017.8 |
| 20260507125124 | 37 | 233 | 4.3 | 5.2 | 0.00 | 0.00 | 0.00 | 54 | 1017.3 |
| 20260507124620 | 35 | 12 | 7.8 | 7.8 | 0.00 | 0.00 | 0.00 | 58 | 1017.8 |
| 20260507124118 | 35 | 133 | 1.7 | 1.7 | 0.00 | 0.00 | 0.00 | 57 | 1017.4 |
| 20260507123616 | 35 | 108 | 0.0 | 0.0 | 0.00 | 0.00 | 0.00 | 56 | 1017.3 |
| 20260507123113 | 34 | 97 | 0.0 | 0.0 | 0.00 | 0.00 | 0.00 | 58 | 1017.3 |
| 20260507122608 | 33 | 71 | 0.9 | 0.9 | 0.00 | 0.00 | 0.00 | 60 | 1017.4 |
| 20260507122104 | 33 | 71 | 0.0 | 0.0 | 0.00 | 0.00 | 0.00 | 64 | 1017.2 |
| 20260507121601 | 32 | 66 | 0.9 | 0.9 | 0.00 | 0.00 | 0.00 | 65 | 1017.2 |
| 20260507121056 | 31 | 75 | 0.0 | 0.0 | 0.00 | 0.00 | 0.00 | 66 | 1017.1 |
| 20260507120552 | 31 | 37 | 0.0 | 0.0 | 0.00 | 0.00 | 0.00 | 65 | 1017.1 |
| 20260507120049 | 30 | 75 | 0.0 | 0.0 | 0.00 | 0.00 | 0.00 | 62 | 1017.1 |
| 20260507115546 | 30 | 75 | 0.0 | 0.0 | 0.00 | 0.00 | 0.00 | 61 | 1016.8 |
| 20260507115042 | 30 | 47 | 0.0 | 0.0 | 0.00 | 0.00 | 0.00 | 60 | 1016.9 |
| 20260507114537 | 28 | 35 | 0.0 | 0.0 | 0.00 | 0.00 | 0.00 | 64 | 1017.0 |
| 20260507114035 | 27 | 21 | 0.9 | 0.9 | 0.00 | 0.00 | 0.00 | 68 | 1016.9 |
| 20260507113532 | 26 | 20 | 0.9 | 0.9 | 0.00 | 0.00 | 0.00 | 71 | 1016.9 |
| 20260507113029 | 25 | 21 | 0.9 | 0.9 | 0.00 | 0.00 | 0.00 | 74 | 1016.8 |
| 20260507112527 | 25 | 46 | 0.0 | 0.0 | 0.00 | 0.00 | 0.00 | 75 | 1016.8 |
| 20260507112023 | 25 | 54 | 1.7 | 1.7 | 0.00 | 0.00 | 0.00 | 75 | 1016.8 |
| 20260507111521 | 25 | 144 | 0.0 | 0.0 | 0.00 | 0.00 | 0.00 | 75 | 1016.4 |
| 20260507111017 | 25 | 150 | 0.9 | 0.9 | 0.00 | 0.00 | 0.00 | 75 | 1016.9 |
| 20260507110514 | 25 | 129 | 0.0 | 0.0 | 0.00 | 0.00 | 0.00 | 73 | 1016.8 |
| 20260507110010 | 25 | 192 | 0.9 | 0.9 | 0.00 | 0.00 | 0.00 | 73 | 1017.0 |
| 20260507105507 | 25 | 324 | 0.9 | 0.9 | 0.00 | 0.00 | 0.00 | 74 | 1016.8 |
| 20260507105003 | 24 | 240 | 2.6 | 2.6 | 0.00 | 0.00 | 0.00 | 75 | 1017.0 |
| 20260507104501 | 25 | 183 | 1.7 | 1.7 | 0.00 | 0.00 | 0.00 | 74 | 1017.1 |
| 20260507103956 | 26 | 55 | 0.0 | 0.0 | 0.00 | 0.00 | 0.00 | 70 | 1017.1 |
| 20260507103453 | 26 | 54 | 0.0 | 0.9 | 0.00 | 0.00 | 0.00 | 70 | 1017.2 |
| 20260507102949 | 25 | 49 | 0.0 | 0.0 | 0.00 | 0.00 | 0.00 | 71 | 1017.1 |
| 20260507102446 | 25 | 50 | 0.9 | 1.7 | 0.00 | 0.00 | 0.00 | 72 | 1017.1 |
| 20260507101943 | 25 | 69 | 0.0 | 0.0 | 0.00 | 0.00 | 0.00 | 70 | 1017.0 |
| 20260507101437 | 26 | 43 | 0.0 | 0.0 | 0.00 | 0.00 | 0.00 | 67 | 1017.1 |
| 20260507100934 | 26 | 15 | 0.0 | 0.0 | 0.00 | 0.00 | 0.00 | 66 | 1016.9 |
| 20260507100432 | 26 | 14 | 0.9 | 0.9 | 0.00 | 0.00 | 0.00 | 66 | 1017.1 |
| 20260507095930 | 26 | 13 | 0.0 | 0.0 | 0.00 | 0.00 | 0.00 | 66 | 1016.9 |
| 20260507095427 | 26 | 53 | 0.9 | 0.9 | 0.00 | 0.00 | 0.00 | 67 | 1017.0 |
| 20260507094924 | 25 | 55 | 0.9 | 0.9 | 0.00 | 0.00 | 0.00 | 67 | 1016.9 |
| 20260507094420 | 25 | 55 | 0.0 | 0.0 | 0.00 | 0.00 | 0.00 | 66 | 1016.9 |
| 20260507093917 | 25 | 93 | 0.0 | 0.0 | 0.00 | 0.00 | 0.00 | 66 | 1016.9 |
| 20260507093415 | 25 | 109 | 0.9 | 0.9 | 0.00 | 0.00 | 0.00 | 65 | 1016.9 |
| 20260507092914 | 25 | 111 | 0.0 | 0.9 | 0.00 | 0.00 | 0.00 | 66 | 1017.0 |
| 20260507092409 | 26 | 148 | 1.7 | 1.7 | 0.00 | 0.00 | 0.00 | 65 | 1017.0 |
| 20260507091906 | 28 | 24 | 0.0 | 0.0 | 0.00 | 0.00 | 0.00 | 61 | 1016.8 |
| 20260507091402 | 28 | 28 | 0.0 | 0.9 | 0.00 | 0.00 | 0.00 | 61 | 1017.0 |
| 20260507090858 | 28 | 219 | 0.0 | 0.9 | 0.00 | 0.00 | 0.00 | 62 | 1016.9 |
| 20260507090354 | 28 | 219 | 0.0 | 0.0 | 0.00 | 0.00 | 0.00 | 61 | 1017.0 |
| 20260507085852 | 28 | 231 | 0.9 | 0.9 | 0.00 | 0.00 | 0.00 | 61 | 1016.8 |
| 20260507085348 | 30 | 288 | 1.7 | 1.7 | 0.00 | 0.00 | 0.00 | 57 | 1016.4 |
| 20260507084846 | 29 | 9 | 0.9 | 0.9 | 0.00 | 0.00 | 0.00 | 58 | 1016.6 |
| 20260507084342 | 29 | 290 | 0.9 | 0.9 | 0.00 | 0.00 | 0.00 | 59 | 1016.4 |
| 20260507083840 | 29 | 316 | 1.7 | 1.7 | 0.00 | 0.00 | 0.00 | 58 | 1016.6 |
| 20260507083336 | 29 | 322 | 0.9 | 0.9 | 0.00 | 0.00 | 0.00 | 59 | 1016.6 |
| 20260507082832 | 29 | 263 | 1.7 | 1.7 | 0.00 | 0.00 | 0.00 | 59 | 1016.4 |
| 20260507082328 | 29 | 324 | 1.7 | 1.7 | 0.00 | 0.00 | 0.00 | 58 | 1016.3 |
| 20260507081825 | 29 | 9 | 0.9 | 0.9 | 0.00 | 0.00 | 0.00 | 59 | 1016.4 |
| 20260507081321 | 29 | 22 | 0.0 | 0.9 | 0.00 | 0.00 | 0.00 | 59 | 1016.3 |
| 20260507080818 | 28 | 22 | 0.0 | 0.9 | 0.00 | 0.00 | 0.00 | 60 | 1016.3 |
| 20260507080314 | 28 | 22 | 0.0 | 0.9 | 0.00 | 0.00 | 0.00 | 60 | 1016.6 |
| 20260507075809 | 28 | 10 | 0.9 | 0.9 | 0.00 | 0.00 | 0.00 | 61 | 1016.5 |
| 20260507075307 | 27 | 336 | 0.9 | 0.9 | 0.00 | 0.00 | 0.00 | 62 | 1016.3 |
| 20260507074803 | 27 | 3 | 0.9 | 0.9 | 0.00 | 0.00 | 0.00 | 64 | 1016.4 |
| 20260507074301 | 27 | 325 | 0.9 | 0.9 | 0.00 | 0.00 | 0.00 | 62 | 1016.8 |
| 20260507073757 | 27 | 285 | 1.7 | 1.7 | 0.00 | 0.00 | 0.00 | 63 | 1016.6 |
| 20260507073254 | 28 | 249 | 1.7 | 1.7 | 0.00 | 0.00 | 0.00 | 62 | 1016.5 |
| 20260507072751 | 28 | 231 | 2.6 | 2.6 | 0.00 | 0.00 | 0.00 | 61 | 1016.4 |
| 20260507072248 | 29 | 242 | 2.6 | 2.6 | 0.00 | 0.00 | 0.00 | 60 | 1016.8 |
| 20260507071746 | 29 | 233 | 1.7 | 1.7 | 0.00 | 0.00 | 0.00 | 57 | 1016.8 |
| 20260507071242 | 30 | 335 | 0.9 | 0.9 | 0.00 | 0.00 | 0.00 | 57 | 1016.6 |
| 20260507070739 | 30 | 4 | 0.9 | 0.9 | 0.00 | 0.00 | 0.00 | 57 | 1016.6 |
| 20260507070236 | 29 | 290 | 0.9 | 0.9 | 0.00 | 0.00 | 0.00 | 59 | 1016.8 |
| 20260507065732 | 30 | 235 | 1.7 | 1.7 | 0.00 | 0.00 | 0.00 | 57 | 1016.8 |
| 20260507065230 | 30 | 309 | 1.7 | 1.7 | 0.00 | 0.00 | 0.00 | 58 | 1017.0 |
| 20260507064727 | 31 | 250 | 2.6 | 2.6 | 0.00 | 0.00 | 0.00 | 57 | 1017.1 |
| 20260507064226 | 31 | 245 | 2.6 | 2.6 | 0.00 | 0.00 | 0.00 | 55 | 1017.1 |
| 20260507063722 | 31 | 223 | 0.9 | 1.7 | 0.00 | 0.00 | 0.00 | 54 | 1017.3 |
| 20260507063219 | 31 | 217 | 1.7 | 1.7 | 0.00 | 0.00 | 0.00 | 54 | 1017.1 |
| 20260507062716 | 30 | 278 | 0.9 | 0.9 | 0.00 | 0.00 | 0.00 | 55 | 1017.2 |
| 20260507062214 | 30 | 33 | 0.0 | 0.0 | 0.00 | 0.00 | 0.00 | 57 | 1017.2 |
| 20260507061711 | 30 | 249 | 1.7 | 1.7 | 0.00 | 0.00 | 0.00 | 57 | 1017.2 |
| 20260507061209 | 29 | 239 | 1.7 | 1.7 | 0.00 | 0.00 | 0.00 | 59 | 1017.2 |
| 20260507060707 | 29 | 291 | 0.9 | 1.7 | 0.00 | 0.00 | 0.00 | 59 | 1017.1 |
| 20260507060203 | 30 | 242 | 2.6 | 2.6 | 0.00 | 0.00 | 0.00 | 57 | 1017.4 |
| 20260507055659 | 30 | 224 | 4.3 | 4.3 | 0.00 | 0.00 | 0.00 | 57 | 1017.1 |
| 20260507055155 | 29 | 246 | 5.2 | 6.1 | 0.00 | 0.00 | 0.00 | 60 | 1017.2 |
| 20260507054651 | 30 | 219 | 2.6 | 2.6 | 0.00 | 0.00 | 0.00 | 56 | 1017.3 |
| 20260507054148 | 31 | 358 | 1.7 | 1.7 | 0.00 | 0.00 | 0.00 | 54 | 1017.2 |
| 20260507053646 | 31 | 356 | 0.9 | 1.7 | 0.00 | 0.00 | 0.00 | 54 | 1017.4 |
| 20260507053144 | 31 | 21 | 0.9 | 0.9 | 0.00 | 0.00 | 0.00 | 53 | 1017.4 |
| 20260507052643 | 32 | 251 | 0.9 | 0.9 | 0.00 | 0.00 | 0.00 | 54 | 1017.7 |
| 20260507052138 | 32 | 235 | 0.9 | 0.9 | 0.00 | 0.00 | 0.00 | 52 | 1017.4 |
| 20260507051636 | 32 | 266 | 1.7 | 1.7 | 0.00 | 0.00 | 0.00 | 52 | 1017.6 |
| 20260507051132 | 31 | 18 | 0.9 | 0.9 | 0.00 | 0.00 | 0.00 | 53 | 1017.6 |
| 20260507050629 | 30 | 13 | 0.9 | 0.9 | 0.00 | 0.00 | 0.00 | 56 | 1017.4 |
| 20260507050126 | 31 | 30 | 0.0 | 0.0 | 0.00 | 0.00 | 0.00 | 55 | 1017.6 |
| 20260507045623 | 31 | 20 | 0.0 | 0.0 | 0.00 | 0.00 | 0.00 | 53 | 1017.7 |
| 20260507045120 | 31 | 338 | 0.9 | 0.9 | 0.00 | 0.00 | 0.00 | 54 | 1017.6 |
| 20260507044617 | 30 | 286 | 0.9 | 0.9 | 0.00 | 0.00 | 0.00 | 56 | 1017.3 |
| 20260507044114 | 30 | 219 | 1.7 | 1.7 | 0.00 | 0.00 | 0.00 | 55 | 1017.8 |
| 20260507043609 | 31 | 243 | 2.6 | 2.6 | 0.00 | 0.00 | 0.00 | 55 | 1017.4 |
| 20260507043107 | 31 | 246 | 1.7 | 1.7 | 0.00 | 0.00 | 0.00 | 55 | 1017.8 |
| 20260507042603 | 31 | 233 | 4.3 | 4.3 | 0.00 | 0.00 | 0.00 | 55 | 1017.7 |
| 20260507042058 | 31 | 236 | 2.6 | 2.6 | 0.00 | 0.00 | 0.00 | 56 | 1017.6 |
| 20260507041555 | 32 | 233 | 1.7 | 1.7 | 0.00 | 0.00 | 0.00 | 53 | 1017.8 |
| 20260507041052 | 32 | 253 | 1.7 | 1.7 | 0.00 | 0.00 | 0.00 | 53 | 1017.4 |
| 20260507040549 | 32 | 252 | 2.6 | 2.6 | 0.00 | 0.00 | 0.00 | 53 | 1017.6 |
| 20260507040045 | 33 | 241 | 0.9 | 1.7 | 0.00 | 0.00 | 0.00 | 52 | 1017.7 |
| 20260507035541 | 33 | 229 | 2.6 | 2.6 | 0.00 | 0.00 | 0.00 | 50 | 1017.7 |
| 20260507035038 | 33 | 223 | 3.5 | 4.3 | 0.00 | 0.00 | 0.00 | 50 | 1017.3 |
| 20260507034534 | 34 | 233 | 1.7 | 1.7 | 0.00 | 0.00 | 0.00 | 49 | 1017.6 |
| 20260507034032 | 34 | 245 | 0.9 | 0.9 | 0.00 | 0.00 | 0.00 | 48 | 1017.6 |
| 20260507033530 | 34 | 227 | 1.7 | 1.7 | 0.00 | 0.00 | 0.00 | 49 | 1017.6 |
| 20260507033027 | 35 | 236 | 1.7 | 1.7 | 0.00 | 0.00 | 0.00 | 47 | 1017.6 |
| 20260507032524 | 35 | 292 | 1.7 | 1.7 | 0.00 | 0.00 | 0.00 | 49 | 1017.8 |
| 20260507032020 | 36 | 279 | 0.9 | 0.9 | 0.00 | 0.00 | 0.00 | 46 | 1017.4 |
| 20260507031516 | 35 | 279 | 1.7 | 1.7 | 0.00 | 0.00 | 0.00 | 46 | 1017.4 |
| 20260507031014 | 34 | 324 | 0.9 | 0.9 | 0.00 | 0.00 | 0.00 | 51 | 1017.7 |
| 20260507030511 | 35 | 192 | 0.9 | 0.9 | 0.00 | 0.00 | 0.00 | 51 | 1017.7 |
| 20260507030008 | 37 | 191 | 0.0 | 0.0 | 0.00 | 0.00 | 0.00 | 49 | 1017.8 |
| 20260507025505 | 37 | 193 | 0.0 | 0.9 | 0.00 | 0.00 | 0.00 | 48 | 1017.6 |
| 20260507025003 | 38 | 194 | 0.9 | 0.9 | 0.00 | 0.00 | 0.00 | 48 | 1017.7 |
| 20260507024500 | 39 | 193 | 0.9 | 1.7 | 0.00 | 0.00 | 0.00 | 40 | 1017.6 |
| 20260507023956 | 41 | 193 | 0.9 | 0.9 | 0.00 | 0.00 | 0.00 | 38 | 1017.7 |
| 20260507023452 | 43 | 209 | 0.0 | 0.0 | 0.00 | 0.00 | 0.00 | 37 | 1017.4 |
| 20260507022949 | 44 | 211 | 0.9 | 1.7 | 0.00 | 0.00 | 0.00 | 35 | 1017.6 |
| 20260507022447 | 44 | 217 | 2.6 | 2.6 | 0.00 | 0.00 | 0.00 | 36 | 1017.9 |
| 20260507021942 | 46 | 37 | 0.0 | 0.0 | 0.00 | 0.00 | 0.00 | 33 | 1017.6 |
| 20260507021437 | 48 | 39 | 0.0 | 0.0 | 0.00 | 0.00 | 0.00 | 30 | 1017.4 |
| 20260507020936 | 49 | 35 | 0.0 | 0.0 | 0.00 | 0.00 | 0.00 | 29 | 1017.8 |
| 20260507020432 | 49 | 34 | 0.0 | 0.0 | 0.00 | 0.00 | 0.00 | 29 | 1018.0 |
| 20260507015929 | 50 | 29 | 0.0 | 0.0 | 0.00 | 0.00 | 0.00 | 28 | 1017.8 |
| 20260507015428 | 51 | 30 | 0.0 | 0.9 | 0.00 | 0.00 | 0.00 | 27 | 1018.0 |
| 20260507014924 | 52 | 23 | 0.9 | 0.9 | 0.00 | 0.00 | 0.00 | 27 | 1018.0 |
| 20260507014420 | 52 | 18 | 0.9 | 0.9 | 0.00 | 0.00 | 0.00 | 26 | 1017.8 |
| 20260507013917 | 52 | 347 | 2.6 | 2.6 | 0.00 | 0.00 | 0.00 | 25 | 1018.1 |
| 20260507013414 | 53 | 14 | 1.7 | 1.7 | 0.00 | 0.00 | 0.00 | 25 | 1018.0 |
| 20260507012912 | 53 | 346 | 2.6 | 2.6 | 0.00 | 0.00 | 0.00 | 24 | 1018.0 |
| 20260507012408 | 53 | 41 | 1.7 | 1.7 | 0.00 | 0.00 | 0.00 | 24 | 1017.9 |
| 20260507011905 | 54 | 316 | 0.9 | 1.7 | 0.00 | 0.00 | 0.00 | 23 | 1017.9 |
| 20260507011401 | 55 | 37 | 0.9 | 0.9 | 0.00 | 0.00 | 0.00 | 23 | 1018.0 |
| 20260507010855 | 55 | 5 | 1.7 | 1.7 | 0.00 | 0.00 | 0.00 | 22 | 1018.0 |
| 20260507010351 | 55 | 277 | 1.7 | 1.7 | 0.00 | 0.00 | 0.00 | 23 | 1018.0 |
| 20260507005849 | 56 | 330 | 2.6 | 4.3 | 0.00 | 0.00 | 0.00 | 22 | 1017.8 |
| 20260507005345 | 55 | 299 | 4.3 | 5.2 | 0.00 | 0.00 | 0.00 | 22 | 1018.0 |
| 20260507004842 | 55 | 272 | 3.5 | 4.3 | 0.00 | 0.00 | 0.00 | 22 | 1018.1 |
| 20260507004339 | 55 | 264 | 6.1 | 7.0 | 0.00 | 0.00 | 0.00 | 21 | 1018.0 |
| 20260507003836 | 55 | 289 | 6.1 | 7.0 | 0.00 | 0.00 | 0.00 | 21 | 1018.1 |
| 20260507003332 | 55 | 282 | 5.2 | 7.0 | 0.00 | 0.00 | 0.00 | 22 | 1017.9 |
| 20260507002827 | 55 | 291 | 4.3 | 7.0 | 0.00 | 0.00 | 0.00 | 22 | 1018.4 |
| 20260507002323 | 54 | 297 | 3.5 | 4.3 | 0.00 | 0.00 | 0.00 | 23 | 1018.4 |
| 20260507001821 | 55 | 269 | 6.1 | 7.8 | 0.00 | 0.00 | 0.00 | 25 | 1018.2 |
| 20260507001318 | 55 | 243 | 2.6 | 2.6 | 0.00 | 0.00 | 0.00 | 23 | 1018.1 |
| 20260507000814 | 54 | 267 | 4.3 | 6.1 | 0.00 | 0.00 | 0.00 | 23 | 1018.4 |
| 20260507000310 | 54 | 258 | 6.1 | 7.0 | 0.00 | 0.00 | 0.00 | 22 | 1018.2 |
| 20260506235806 | 55 | 333 | 6.1 | 7.8 | 0.00 | 0.00 | 0.00 | 22 | 1018.5 |
| 20260506235306 | 55 | 2 | 2.6 | 2.6 | 0.00 | 0.00 | 0.00 | 22 | 1018.5 |
| 20260506234759 | 54 | 239 | 5.2 | 7.0 | 0.00 | 0.00 | 0.00 | 23 | 1018.2 |
| 20260506234256 | 55 | 248 | 7.0 | 7.8 | 0.00 | 0.00 | 0.00 | 22 | 1018.2 |
| 20260506233754 | 55 | 275 | 4.3 | 5.2 | 0.00 | 0.00 | 0.00 | 22 | 1018.5 |
| 20260506233250 | 55 | 221 | 1.7 | 1.7 | 0.00 | 0.00 | 0.00 | 21 | 1018.6 |
| 20260506232747 | 56 | 286 | 6.1 | 7.8 | 0.00 | 0.00 | 0.00 | 21 | 1018.7 |
| 20260506232242 | 56 | 253 | 4.3 | 5.2 | 0.00 | 0.00 | 0.00 | 21 | 1018.6 |
| 20260506231739 | 55 | 305 | 4.3 | 6.1 | 0.00 | 0.00 | 0.00 | 22 | 1018.8 |
| 20260506231238 | 55 | 265 | 5.2 | 6.1 | 0.00 | 0.00 | 0.00 | 21 | 1018.8 |
| 20260506230734 | 55 | 269 | 4.3 | 6.1 | 0.00 | 0.00 | 0.00 | 22 | 1018.8 |
| 20260506230231 | 54 | 301 | 3.5 | 4.3 | 0.00 | 0.00 | 0.00 | 22 | 1018.9 |
| 20260506225728 | 54 | 306 | 5.2 | 6.1 | 0.00 | 0.00 | 0.00 | 21 | 1019.1 |
| 20260506225225 | 55 | 320 | 5.2 | 6.1 | 0.00 | 0.00 | 0.00 | 22 | 1019.4 |
| 20260506224721 | 55 | 290 | 6.1 | 7.8 | 0.00 | 0.00 | 0.00 | 21 | 1019.5 |
| 20260506224218 | 54 | 283 | 8.7 | 12.2 | 0.00 | 0.00 | 0.00 | 22 | 1019.5 |
| 20260506223714 | 53 | 276 | 5.2 | 7.0 | 0.00 | 0.00 | 0.00 | 22 | 1019.6 |
| 20260506223210 | 54 | 278 | 4.3 | 5.2 | 0.00 | 0.00 | 0.00 | 22 | 1019.9 |
| 20260506222708 | 55 | 293 | 10.4 | 13.0 | 0.00 | 0.00 | 0.00 | 21 | 1019.8 |
| 20260506222203 | 55 | 293 | 7.0 | 7.8 | 0.00 | 0.00 | 0.00 | 23 | 1020.1 |
| 20260506221701 | 54 | 330 | 7.0 | 11.3 | 0.00 | 0.00 | 0.00 | 22 | 1020.1 |
| 20260506221159 | 54 | 244 | 5.2 | 7.0 | 0.00 | 0.00 | 0.00 | 22 | 1020.3 |
| 20260506220655 | 53 | 293 | 4.3 | 5.2 | 0.00 | 0.00 | 0.00 | 23 | 1020.3 |
| 20260506220150 | 53 | 358 | 4.3 | 5.2 | 0.00 | 0.00 | 0.00 | 23 | 1020.3 |
| 20260506215647 | 53 | 328 | 5.2 | 7.8 | 0.00 | 0.00 | 0.00 | 23 | 1020.4 |
| 20260506215143 | 54 | 280 | 9.6 | 12.2 | 0.00 | 0.00 | 0.00 | 23 | 1020.6 |
| 20260506214640 | 54 | 317 | 9.6 | 12.2 | 0.00 | 0.00 | 0.00 | 23 | 1020.5 |
| 20260506214137 | 53 | 275 | 13.9 | 17.4 | 0.00 | 0.00 | 0.00 | 24 | 1020.5 |
| 20260506213636 | 55 | 291 | 10.4 | 14.8 | 0.00 | 0.00 | 0.00 | 22 | 1020.5 |
| 20260506213132 | 53 | 279 | 10.4 | 11.3 | 0.00 | 0.00 | 0.00 | 23 | 1020.6 |
| 20260506212630 | 54 | 257 | 7.0 | 7.8 | 0.00 | 0.00 | 0.00 | 23 | 1020.5 |
| 20260506212124 | 52 | 278 | 7.0 | 7.8 | 0.00 | 0.00 | 0.00 | 24 | 1021.0 |
| 20260506211620 | 54 | 302 | 5.2 | 6.1 | 0.00 | 0.00 | 0.00 | 24 | 1021.2 |
| 20260506211117 | 53 | 356 | 4.3 | 7.0 | 0.00 | 0.00 | 0.00 | 23 | 1021.2 |
| 20260506210614 | 53 | 290 | 6.1 | 7.8 | 0.00 | 0.00 | 0.00 | 24 | 1021.4 |
| 20260506210110 | 52 | 298 | 6.1 | 13.0 | 0.00 | 0.00 | 0.00 | 24 | 1021.4 |
| 20260506205608 | 53 | 278 | 9.6 | 12.2 | 0.00 | 0.00 | 0.00 | 23 | 1021.6 |
| 20260506205102 | 52 | 277 | 8.7 | 12.2 | 0.00 | 0.00 | 0.00 | 24 | 1021.4 |
| 20260506204601 | 51 | 286 | 7.8 | 8.7 | 0.00 | 0.00 | 0.00 | 25 | 1021.6 |
| 20260506204057 | 52 | 258 | 13.0 | 15.6 | 0.00 | 0.00 | 0.00 | 24 | 1021.8 |
| 20260506203556 | 52 | 307 | 7.8 | 12.2 | 0.00 | 0.00 | 0.00 | 24 | 1021.9 |
| 20260506203052 | 52 | 328 | 3.5 | 5.2 | 0.00 | 0.00 | 0.00 | 24 | 1021.8 |
| 20260506202549 | 52 | 270 | 8.7 | 9.6 | 0.00 | 0.00 | 0.00 | 25 | 1022.0 |
| 20260506202046 | 50 | 222 | 8.7 | 9.6 | 0.00 | 0.00 | 0.00 | 26 | 1022.0 |